Regional Weather Roundup
Issued by NWS

Home | Current Version | Previous Version | Text Only | Print | Product List | Glossary Off
Versions: 1 2 3 4 5 6 7 8 9 10 11 12 13 14 15 16 17 18 19 20 21 22 23 24 25 26 27 28 29 30 31 32 33 34 35 36 37 38 39 40 41 42 43 44 45 46 47 48 49 50

000
ASUS43 KMKX 120611
RWRWI

WISCONSIN REGIONAL WEATHER ROUNDUP
NATIONAL WEATHER SERVICE MILWAUKEE/SULLIVAN WI
100 AM CDT SAT JUL 12 2014

NOTE: "FAIR" INDICATES FEW OR NO CLOUDS BELOW 12,000 FEET WITH NO
SIGNIFICANT WEATHER AND/OR OBSTRUCTIONS TO VISIBILITY.

WIZ001-002-006>008-014>016-023>028-120700-
NORTHWEST WISCONSIN

CITY           SKY/WX    TMP DP  RH WIND       PRES   REMARKS
SUPERIOR ARPT  PTCLDY    66  66  99 SW5       29.97F FOG
6HR MIN TEMP:  64; 6HR MAX TEMP:  76; 6HR PCP:  0.72;

ASHLAND        CLEAR     65  64  97 S5        29.99R
6HR MIN TEMP:  65; 6HR MAX TEMP:  74;

HAYWARD        PTCLDY    68  66  93 CALM      30.02S
6HR MIN TEMP:  66; 6HR MAX TEMP:  72;

SIREN          PTCLDY    69  67  95 S5        30.01F
6HR MIN TEMP:  69; 6HR MAX TEMP:  74;

RICE LAKE      PTCLDY    67  65  94 CALM      30.04F
6HR MIN TEMP:  66; 6HR MAX TEMP:  72;

LADYSMITH      PTCLDY    67  65  91 S5        30.05S
6HR MIN TEMP:  67; 6HR MAX TEMP:  72;

EAU CLAIRE     CLOUDY    72  67  84 S7        30.02S
6HR MIN TEMP:  72; 6HR MAX TEMP:  75;

MENOMONIE      MOCLDY    71  67  85 S6        30.03S
6HR MIN TEMP:  69; 6HR MAX TEMP:  75;

NEW RICHMOND   PTCLDY    69  67  96 SE5       30.02F
6HR MIN TEMP:  69; 6HR MAX TEMP:  74;

OSCEOLA        PTCLDY    70  70  98 S5        30.03F
6HR MIN TEMP:  70; 6HR MAX TEMP:  76;

$$

WIZ003>005-009-010-017-018-120700-
NORTH CENTRAL WISCONSIN

CITY           SKY/WX    TMP DP  RH WIND       PRES   REMARKS
WOODRUFF       CLOUDY    67  63  86 SW6       30.05S
6HR MIN TEMP:  67; 6HR MAX TEMP:  72;

RHINELANDER    CLEAR     65  60  84 SW6       30.06S
6HR MIN TEMP:  65; 6HR MAX TEMP:  71; 6HR PCP: TRACE;

EAGLE RIVER    CLOUDY    66  58  76 CALM      30.05S
6HR MIN TEMP:  66; 6HR MAX TEMP:  71;

LAND O LAKES   CLOUDY    67  61  80 SW5       30.05F
6HR MIN TEMP:  67; 6HR MAX TEMP:  72;

PHILLIPS       CLOUDY    66  64  92 S5        30.04S
6HR MIN TEMP:  66; 6HR MAX TEMP:  71;

TOMAHAWK       PTCLDY    65  60  83 CALM      30.06F
6HR MIN TEMP:  65; 6HR MAX TEMP:  70;

MEDFORD        MOCLDY    67  63  88 S8        30.06S
6HR MIN TEMP:  66; 6HR MAX TEMP:  70;

MERRILL        CLOUDY    67  62  84 CALM      30.06S
6HR MIN TEMP:  66; 6HR MAX TEMP:  73;

$$

WIZ029-030-035-036-043>047-120700-
CENTRAL WISCONSIN

CITY           SKY/WX    TMP DP  RH WIND       PRES   REMARKS
WAUSAU         CLEAR     68  61  78 S6        30.04F
6HR MIN TEMP:  68; 6HR MAX TEMP:  74;

MOSINEE        CLEAR     63  61  94 S5        30.07S
MARSHFIELD     PTCLDY    66  62  87 S6        30.06S
6HR MIN TEMP:  66; 6HR MAX TEMP:  72;

STEVENS POINT  PTCLDY    65  58  78 S6        30.06F
6HR MIN TEMP:  65; 6HR MAX TEMP:  72;

WAUPACA        PTCLDY    67  59  74 S3        30.05F
6HR MIN TEMP:  67; 6HR MAX TEMP:  76;

WAUTOMA        CLEAR     66  60  81 CALM      30.07F
6HR MIN TEMP:  66; 6HR MAX TEMP:  76;

WISC RAPIDS    CLEAR     67  60  78 S5        30.06F
6HR MIN TEMP:  67; 6HR MAX TEMP:  75;

CAMP DOUGLAS   NOT AVBL
$$

WIZ011>013-019>022-031-037>040-048>050-120700-
NORTHEAST WISCONSIN

CITY           SKY/WX    TMP DP  RH WIND       PRES   REMARKS
ANTIGO         PTCLDY    63  59  86 SW6       30.07S
6HR MIN TEMP:  62; 6HR MAX TEMP:  70;

STURGEON BAY   CLOUDY    66  55  68 S9        30.07S
6HR MIN TEMP:  64; 6HR MAX TEMP:  72;

GREEN BAY      CLEAR     66  57  72 S7        30.05F
6HR MIN TEMP:  66; 6HR MAX TEMP:  77;

MANITOWOC      MOCLDY    59  53  80 E5        30.08F
6HR MIN TEMP:  59; 6HR MAX TEMP:  73;

APPLETON       CLEAR     66  55  68 S7        30.06F
CLINTONVILLE   CLEAR     68  57  68 SW5       30.05F
OSHKOSH        CLEAR     64  58  80 S10       30.06F
6HR MIN TEMP:  63; 6HR MAX TEMP:  75;

$$

WIZ032>034-041-042-053>061-120700-
SOUTHWEST WISCONSIN

CITY           SKY/WX    TMP DP  RH WIND       PRES   REMARKS
LA CROSSE      CLEAR     71  65  81 SE5       30.03S
6HR MIN TEMP:  71; 6HR MAX TEMP:  79;

SPARTA         PTCLDY    69  62  77 CALM      30.06R
6HR MIN TEMP:  69; 6HR MAX TEMP:  75;

VIROQUA        CLOUDY    69  64  84 SE6       30.07S
6HR MIN TEMP:  69; 6HR MAX TEMP:  74;

BOSCOBEL       CLOUDY    72  65  78 CALM      30.05F
6HR MIN TEMP:  72; 6HR MAX TEMP:  77;

PRAIRIE DU CHI MOCLDY    70  65  83 E3        30.04S
6HR MIN TEMP:  70; 6HR MAX TEMP:  76;

PLATTEVILLE    CLOUDY    70  65  85 SE7       30.07F
6HR MIN TEMP:  70; 6HR MAX TEMP:  74;

$$

WIZ056-057-062-063-064-067-068-120700-
SOUTH CENTRAL WISCONSIN

CITY           SKY/WX    TMP DP  RH WIND       PRES   REMARKS
BARABOO/DELLS  CLOUDY    69  60  74 S6        30.06F
6HR MIN TEMP:  67; 6HR MAX TEMP:  74;

LONE ROCK      CLOUDY    73  66  78 E5        30.05F
6HR MIN TEMP:  73; 6HR MAX TEMP:  79;

WATERTOWN      MOCLDY    65  60  82 CALM      30.08F
6HR MIN TEMP:  65; 6HR MAX TEMP:  73;

MADISON        CLEAR     72  61  68 S9        30.07F
6HR MIN TEMP:  72; 6HR MAX TEMP:  76;

MIDDLETON      FAIR      72  60  66 S8        30.08S
6HR MIN TEMP:  72; 6HR MAX TEMP:  75;

MONROE         MOCLDY    68  63  83 S8        30.08F
JANESVILLE     CLOUDY    72  59  64 S7        30.08F
$$

WIZ051-052-058>065-066-070>072-120700-
SOUTHEAST WISCONSIN

CITY           SKY/WX    TMP DP  RH WIND       PRES   REMARKS
MILWAUKEE      MOCLDY    69  58  67 S6        30.11S
6HR MIN TEMP:  67; 6HR MAX TEMP:  72;

WAUKESHA       CLOUDY    66  55  68 S6        30.11F
MILWAUKEE/TIMM CLOUDY    66  55  68 CALM      30.11S
RACINE         CLOUDY    70  61  73 S5        30.12F
6HR MIN TEMP:  67; 6HR MAX TEMP:  73;

BURLINGTON     MOCLDY    64  60  86 CALM      30.11S
6HR MIN TEMP:  64; 6HR MAX TEMP:  71;

KENOSHA        CLOUDY    69  62  78 S6        30.11F
6HR MIN TEMP:  66; 6HR MAX TEMP:  74;

FOND DU LAC    CLEAR     63  57  81 S8        30.08F
6HR MIN TEMP:  63; 6HR MAX TEMP:  74;

SHEBOYGAN      CLEAR     62  55  77 S3        30.09F
6HR MIN TEMP:  62; 6HR MAX TEMP:  73;

WEST BEND      CLEAR     63  54  72 S6        30.09F
JUNEAU         PTCLDY    65  45  48 SE6       30.09F
6HR MIN TEMP:  64; 6HR MAX TEMP:  73;

$$

LSZ147-162-120700-
LAKE SUPERIOR

STATION/POSITION TIME  TEMP    WIND        PRES    WAVE
                       AIR SEA DIR/SP/G            HT/PER
                 (UTC) (F)     (DEG/KT/KT) (MB)    (FT/S)
W MID LAKE BUOY  0550   50 38  220/ 12/ 14 1014.1F   1/ 3
PORT WING        0540   68     200/  4/  7 1014.9S
SAXON HARBOR     0540          200/  9/ 13 1014.9S
$$

LMZ867-665-643>646-120700-
LAKE MICHIGAN

STATION/POSITION TIME  TEMP    WIND        PRES    WAVE
                       AIR SEA DIR/SP/G            HT/PER
                 (UTC) (F)     (DEG/KT/KT) (MB)    (FT/S)
N MID LAKE BUOY  0550   58 53  210/ 14/ 16 1017.5S   2/ 5
NORTHPORT PIER   0500   63     150/  4/  7 1017.9S
KEWAUNEE LAKESHO 0500   52     180/ 10/ 11 1019.0F
SHEBOYGAN LAKESH 0600   67     190/  9/  9 1018.9F
PORT WASHINGTON  0500   61     190/  5/  8 1019.6F
MILWAUKEE LAKESH 0500   61     160/  5/  6   N/A
S MID LAKE BUOY  0550   63 60  160/  8/  8 1019.9F   0
KENOSHA   LAKESH 0600   65     180/  7/  7   N/A
$$

TC  - TEMPERATURE IN CELSIUS
VSB - VISIBILITY IN STATUTE MILES
WCI - WIND CHILL INDEX
HX  - HEAT INDEX



USA.gov is the U.S. government's official web portal to all federal, state and local government web resources and services.